QPF
0.09 0.05 0.04 0.06 0.07 0.09 0.09 0.07 0.06 0.06 0.07 0.07 0.06 0.07 0.06 0.04 0.03 0.05 0.04 0.03 0.03 0.03 0.04 0.03 0.02 0.01 0.02 0.01 0.01 0.02 0.02 0.01 0.01 0.01 0.01 0.01 0.01 0.01 0.01 0.02 0.06 0.10 0.07
0.04 0.02 0.04 0.07 0.07 0.07 0.08 0.07 0.06 0.06 0.07 0.07 0.06 0.07 0.05 0.04 0.04 0.05 0.06 0.04 0.04 0.04 0.05 0.04 0.02 0.02 0.02 0.02 0.02 0.02 0.02 0.01 0.01 0.01 0.02 0.02 0.01 0.01 0.01 0.02 0.05 0.07 0.04
0.04 0.02 0.03 0.07 0.07 0.06 0.06 0.06 0.06 0.07 0.09 0.07 0.08 0.06 0.03 0.03 0.04 0.05 0.06 0.05 0.04 0.04 0.04 0.02 0.02 0.02 0.02 0.02 0.02 0.02 0.01 0.01 0.01 0.02 0.06 0.14 0.10 0.02 0.02 0.03 0.04 0.03 0.02
0.06 0.06 0.04 0.06 0.08 0.08 0.08 0.07 0.05 0.05 0.05 0.05 0.07 0.05 0.03 0.03 0.04 0.05 0.05 0.04 0.04 0.05 0.04 0.02 0.01 0.01 0.02 0.02 0.01 0.01 0.01 0.01 0.02 0.04 0.08 0.13 0.14 0.04 0.03 0.03 0.03 0.02 0.03
0.06 0.05 0.04 0.06 0.08 0.08 0.09 0.08 0.05 0.03 0.04 0.05 0.08 0.05 0.02 0.02 0.03 0.03 0.04 0.04 0.04 0.04 0.02 0.02 0.01 0.02 0.01 0.01 0.01 0.01 0.01 0.01 0.02 0.04 0.05 0.10 0.14 0.06 0.03 0.03 0.04 0.03 0.04
0.08 0.06 0.05 0.07 0.08 0.08 0.09 0.05 0.03 0.02 0.03 0.04 0.05 0.03 0.02 0.01 0.01 0.01 0.03 0.03 0.03 0.02 0.01 0.01 0.01 0.01 0.01 0.01 0.01 0.02 0.01 0.01 0.02 0.03 0.06 0.12 0.14 0.07 0.03 0.02 0.03 0.03 0.06
0.06 0.06 0.05 0.07 0.08 0.06 0.05 0.04 0.03 0.03 0.03 0.04 0.03 0.01 0.02 0.02 0.01 0.02 0.02 0.01 0.01 0.01 0.02 0.02 0.03 0.02 0.01 0.01 0.01 0.01 0.01 0.01 0.01 0.02 0.06 0.09 0.09 0.05 0.04 0.03 0.03 0.04 0.10
0.04 0.04 0.02 0.05 0.06 0.06 0.04 0.03 0.03 0.02 0.02 0.02 0.02 0.02 0.02 0.02 0.02 0.02 0.01 0.01 0.01 0.01 0.01 0.01 0.01 0.02 0.02 0.01 0.01 0.01 0.01 0.01 0.01 0.01 0.04 0.06 0.04 0.04 0.03 0.04 0.03 0.03 0.09
0.05 0.03 0.02 0.03 0.03 0.05 0.04 0.02 0.01 0.01 0.01 0.01 0.01 0.01 0.01 0.01 0.01 0.01 0.01 0.01 0.01 0.01 0.01 0.01 0.01 0.01 0.02 0.01 0.01 0.01 0.01 0.01 0.01 0.02 0.02 0.04 0.03 0.03 0.02 0.03 0.03 0.04 0.06
0.08 0.04 0.02 0.03 0.03 0.02 0.01 0.01 0.00 0.00 0.01 0.01 0.00 0.00 0.00 0.01 0.01 0.01 0.00 0.01 0.01 0.01 0.01 0.01 0.01 0.01 0.00 0.00 0.01 0.01 0.01 0.01 0.01 0.01 0.03 0.03 0.03 0.03 0.03 0.04 0.05 0.05 0.07
0.07 0.05 0.02 0.03 0.04 0.02 0.01 0.00 0.00 0.00 0.00 0.00 0.00 0.00 0.00 0.00 0.01 0.01 0.01 0.00 0.00 0.00 0.00 0.00 0.01 0.01 0.00 0.01 0.01 0.01 0.01 0.01 0.02 0.02 0.03 0.02 0.03 0.04 0.07 0.06 0.08 0.07 0.07
0.06 0.05 0.03 0.03 0.02 0.01 0.01 0.01 0.00 0.00 0.00 0.00 0.00 0.00 0.00 0.00 0.01 0.00 0.00 0.00 0.00 0.00 0.00 0.00 0.01 0.01 0.02 0.01 0.01 0.01 0.02 0.01 0.01 0.01 0.02 0.02 0.02 0.03 0.04 0.05 0.09 0.08 0.07
0.06 0.06 0.05 0.02 0.02 0.01 0.01 0.01 0.00 0.00 0.00 0.00 0.00 0.00 0.00 0.00 0.01 0.01 0.01 0.01 0.00 0.00 0.00 0.00 0.01 0.01 0.01 0.01 0.01 0.01 0.01 0.00 0.00 0.01 0.01 0.02 0.02 0.04 0.05 0.06 0.12 0.11 0.07
0.06 0.07 0.06 0.02 0.02 0.01 0.00 0.00 0.00 0.00 0.00 0.00 0.00 0.00 0.00 0.00 0.00 0.01 0.01 0.01 0.00 0.00 0.00 0.00 0.00 0.01 0.01 0.01 0.01 0.01 0.01 0.01 0.01 0.01 0.01 0.01 0.01 0.03 0.04 0.08 0.12 0.09 0.07
0.04 0.04 0.04 0.02 0.03 0.01 0.01 0.00 0.00 0.00 0.00 0.00 0.00 0.00 0.00 0.00 0.00 0.00 0.00 0.00 0.00 0.00 0.00 0.01 0.01 0.01 0.01 0.00 0.00 0.01 0.01 0.01 0.01 0.01 0.01 0.00 0.00 0.02 0.04 0.06 0.07 0.07 0.07
0.02 0.02 0.02 0.02 0.02 0.01 0.00 0.00 0.00 0.00 0.00 0.00 0.00 0.00 0.00 0.00 0.00 0.00 0.00 0.00 0.00 0.00 0.00 0.00 0.00 0.01 0.01 0.01 0.02 0.02 0.03 0.01 0.02 0.02 0.02 0.01 0.01 0.01 0.03 0.03 0.03 0.05 0.07
0.01 0.01 0.01 0.01 0.01 0.02 0.01 0.00 0.00 0.00 0.00 0.00 0.00 0.00 0.00 0.00 0.00 0.00 0.00 0.00 0.00 0.00 0.00 0.00 0.00 0.01 0.01 0.02 0.04 0.03 0.03 0.02 0.03 0.02 0.03 0.04 0.03 0.01 0.02 0.02 0.02 0.03 0.06
0.01 0.01 0.01 0.00 0.01 0.02 0.02 0.01 0.00 0.00 0.00 0.00 0.00 0.00 0.00 0.00 0.00 0.00 0.01 0.00 0.00 0.00 0.00 0.00 0.01 0.01 0.01 0.03 0.03 0.03 0.02 0.03 0.03 0.02 0.03 0.04 0.04 0.03 0.02 0.01 0.01 0.02 0.04
0.00 0.00 0.01 0.01 0.01 0.01 0.02 0.01 0.01 0.00 0.00 0.00 0.00 0.00 0.00 0.00 0.00 0.00 0.01 0.01 0.00 0.00 0.00 0.01 0.01 0.02 0.03 0.03 0.03 0.02 0.03 0.03 0.02 0.02 0.03 0.03 0.03 0.04 0.03 0.01 0.01 0.01 0.02
0.00 0.01 0.01 0.01 0.01 0.01 0.02 0.01 0.00 0.00 0.00 0.00 0.00 0.01 0.00 0.00 0.01 0.01 0.01 0.01 0.01 0.01 0.02 0.02 0.02 0.03 0.03 0.04 0.02 0.03 0.03 0.02 0.02 0.02 0.03 0.04 0.03 0.03 0.04 0.04 0.03 0.01 0.01
0.00 0.01 0.01 0.01 0.01 0.01 0.01 0.00 0.00 0.00 0.00 0.00 0.00 0.00 0.00 0.00 0.00 0.01 0.01 0.01 0.01 0.02 0.02 0.02 0.03 0.03 0.03 0.03 0.05 0.06 0.05 0.02 0.02 0.02 0.04 0.06 0.05 0.05 0.05 0.04 0.04 0.04 0.03
0.01 0.01 0.01 0.01 0.01 0.01 0.01 0.00 0.00 0.00 0.00 0.00 0.00 0.00 0.00 0.00 0.00 0.00 0.01 0.01 0.01 0.02 0.02 0.02 0.03 0.03 0.02 0.02 0.05 0.07 0.06 0.04 0.03 0.03 0.03 0.04 0.04 0.05 0.04 0.03 0.03 0.03 0.04
0.01 0.01 0.01 0.01 0.01 0.01 0.01 0.00 0.00 0.00 0.00 0.00 0.00 0.00 0.00 0.00 0.00 0.00 0.00 0.01 0.01 0.01 0.01 0.02 0.03 0.04 0.04 0.03 0.02 0.05 0.07 0.06 0.05 0.05 0.04 0.03 0.04 0.05 0.04 0.03 0.02 0.02 0.03
0.00 0.00 0.00 0.01 0.01 0.01 0.01 0.00 0.00 0.00 0.00 0.00 0.00 0.01 0.00 0.00 0.00 0.01 0.01 0.01 0.02 0.02 0.02 0.02 0.02 0.03 0.03 0.03 0.03 0.04 0.04 0.05 0.06 0.06 0.05 0.03 0.03 0.03 0.03 0.02 0.03 0.02 0.03
0.00 0.00 0.00 0.00 0.01 0.02 0.01 0.00 0.00 0.00 0.00 0.00 0.00 0.01 0.00 0.00 0.01 0.01 0.00 0.01 0.01 0.02 0.02 0.02 0.02 0.02 0.02 0.03 0.04 0.04 0.05 0.05 0.05 0.07 0.06 0.05 0.03 0.02 0.03 0.03 0.03 0.03 0.04
0.00 0.00 0.00 0.00 0.00 0.01 0.02 0.01 0.01 0.00 0.00 0.00 0.00 0.00 0.00 0.01 0.01 0.00 0.01 0.01 0.01 0.01 0.01 0.01 0.01 0.01 0.02 0.03 0.03 0.04 0.06 0.05 0.06 0.06 0.06 0.05 0.04 0.02 0.03 0.03 0.03 0.03 0.03
MSLP
1012.55 1012.25 1012.01 1011.88 1011.90 1012.05 1012.28 1012.56 1012.80 1012.98 1013.07 1013.10 1013.09 1013.10 1013.16 1013.28 1013.47 1013.69 1013.91 1014.08 1014.20 1014.25 1014.26 1014.26 1014.28 1014.35 1014.47 1014.63 1014.80 1014.94 1015.04 1015.08 1015.06 1015.01 1014.95 1014.92 1014.94 1015.00 1015.09 1015.19 1015.27 1015.32 1015.33
1012.68 1012.45 1012.29 1012.25 1012.33 1012.51 1012.74 1012.98 1013.17 1013.28 1013.33 1013.32 1013.31 1013.35 1013.44 1013.61 1013.82 1014.05 1014.25 1014.39 1014.47 1014.47 1014.44 1014.41 1014.41 1014.47 1014.57 1014.71 1014.86 1014.98 1015.06 1015.09 1015.07 1015.03 1015.00 1015.01 1015.06 1015.14 1015.25 1015.34 1015.41 1015.45 1015.44
1012.80 1012.65 1012.57 1012.61 1012.75 1012.95 1013.19 1013.39 1013.53 1013.59 1013.59 1013.57 1013.57 1013.62 1013.74 1013.92 1014.13 1014.34 1014.50 1014.60 1014.62 1014.58 1014.53 1014.48 1014.47 1014.52 1014.62 1014.75 1014.87 1014.96 1015.01 1015.01 1014.99 1014.97 1014.97 1015.01 1015.10 1015.22 1015.34 1015.45 1015.52 1015.55 1015.54
1012.87 1012.81 1012.83 1012.94 1013.14 1013.37 1013.60 1013.77 1013.87 1013.90 1013.88 1013.85 1013.85 1013.91 1014.03 1014.21 1014.40 1014.56 1014.67 1014.71 1014.69 1014.62 1014.55 1014.51 1014.51 1014.57 1014.66 1014.77 1014.86 1014.91 1014.93 1014.91 1014.87 1014.86 1014.88 1014.96 1015.08 1015.23 1015.37 1015.50 1015.58 1015.62 1015.61
1012.91 1012.93 1013.03 1013.22 1013.47 1013.73 1013.96 1014.12 1014.20 1014.20 1014.17 1014.13 1014.13 1014.20 1014.31 1014.47 1014.62 1014.73 1014.79 1014.77 1014.71 1014.63 1014.57 1014.54 1014.57 1014.65 1014.75 1014.83 1014.89 1014.90 1014.86 1014.80 1014.74 1014.72 1014.76 1014.85 1015.00 1015.17 1015.35 1015.49 1015.59 1015.64 1015.67
1012.93 1013.01 1013.18 1013.43 1013.73 1014.02 1014.25 1014.41 1014.47 1014.46 1014.42 1014.39 1014.39 1014.46 1014.56 1014.69 1014.79 1014.86 1014.86 1014.81 1014.74 1014.66 1014.62 1014.63 1014.69 1014.79 1014.89 1014.95 1014.97 1014.92 1014.83 1014.72 1014.63 1014.59 1014.62 1014.73 1014.89 1015.08 1015.27 1015.43 1015.55 1015.63 1015.67
1012.93 1013.05 1013.27 1013.57 1013.91 1014.22 1014.46 1014.61 1014.67 1014.65 1014.61 1014.59 1014.60 1014.66 1014.75 1014.85 1014.93 1014.95 1014.93 1014.85 1014.77 1014.71 1014.70 1014.75 1014.85 1014.97 1015.06 1015.11 1015.07 1014.97 1014.82 1014.66 1014.53 1014.47 1014.49 1014.61 1014.78 1014.98 1015.18 1015.35 1015.48 1015.58 1015.65
1012.94 1013.07 1013.31 1013.64 1013.99 1014.32 1014.57 1014.71 1014.77 1014.76 1014.72 1014.71 1014.73 1014.79 1014.88 1014.96 1015.01 1015.01 1014.96 1014.88 1014.81 1014.77 1014.79 1014.87 1015.00 1015.13 1015.21 1015.23 1015.15 1015.00 1014.80 1014.59 1014.43 1014.36 1014.39 1014.51 1014.69 1014.90 1015.10 1015.27 1015.41 1015.52 1015.61
1012.96 1013.08 1013.32 1013.65 1014.01 1014.33 1014.57 1014.72 1014.77 1014.76 1014.73 1014.73 1014.76 1014.83 1014.92 1014.99 1015.03 1015.02 1014.96 1014.87 1014.81 1014.79 1014.83 1014.93 1015.07 1015.20 1015.27 1015.25 1015.14 1014.95 1014.72 1014.50 1014.33 1014.26 1014.30 1014.43 1014.63 1014.85 1015.05 1015.23 1015.36 1015.47 1015.55
1012.97 1013.06 1013.29 1013.61 1013.96 1014.27 1014.50 1014.63 1014.68 1014.67 1014.65 1014.66 1014.71 1014.79 1014.89 1014.96 1015.00 1014.97 1014.91 1014.83 1014.76 1014.74 1014.79 1014.89 1015.01 1015.13 1015.18 1015.15 1015.01 1014.81 1014.57 1014.36 1014.21 1014.17 1014.23 1014.39 1014.61 1014.83 1015.05 1015.22 1015.35 1015.43 1015.51
1012.98 1013.04 1013.25 1013.55 1013.88 1014.17 1014.38 1014.50 1014.54 1014.53 1014.53 1014.55 1014.61 1014.70 1014.81 1014.89 1014.91 1014.89 1014.81 1014.72 1014.65 1014.61 1014.64 1014.72 1014.83 1014.92 1014.95 1014.90 1014.77 1014.58 1014.37 1014.19 1014.08 1014.08 1014.19 1014.38 1014.62 1014.86 1015.08 1015.25 1015.36 1015.43 1015.47
1012.97 1013.02 1013.21 1013.49 1013.80 1014.07 1014.25 1014.36 1014.39 1014.39 1014.39 1014.42 1014.50 1014.60 1014.71 1014.80 1014.82 1014.79 1014.70 1014.59 1014.49 1014.43 1014.43 1014.48 1014.55 1014.61 1014.63 1014.59 1014.48 1014.32 1014.15 1014.03 1013.97 1014.02 1014.17 1014.39 1014.65 1014.91 1015.13 1015.29 1015.39 1015.44 1015.44
1012.95 1013.01 1013.20 1013.47 1013.75 1013.99 1014.17 1014.26 1014.29 1014.29 1014.30 1014.35 1014.43 1014.55 1014.66 1014.74 1014.77 1014.72 1014.62 1014.48 1014.36 1014.26 1014.22 1014.23 1014.27 1014.31 1014.32 1014.29 1014.21 1014.10 1013.99 1013.92 1013.92 1014.01 1014.19 1014.43 1014.69 1014.95 1015.17 1015.33 1015.42 1015.45 1015.43
1012.95 1013.04 1013.23 1013.50 1013.77 1013.99 1014.15 1014.24 1014.28 1014.29 1014.31 1014.37 1014.46 1014.57 1014.68 1014.76 1014.77 1014.71 1014.59 1014.44 1014.29 1014.16 1014.09 1014.06 1014.07 1014.10 1014.11 1014.10 1014.06 1013.99 1013.94 1013.92 1013.96 1014.07 1014.25 1014.48 1014.73 1014.97 1015.18 1015.33 1015.43 1015.45 1015.42
1012.99 1013.12 1013.34 1013.60 1013.86 1014.08 1014.24 1014.33 1014.38 1014.41 1014.44 1014.51 1014.60 1014.71 1014.81 1014.87 1014.87 1014.80 1014.67 1014.51 1014.34 1014.19 1014.09 1014.04 1014.03 1014.05 1014.08 1014.09 1014.08 1014.07 1014.05 1014.06 1014.11 1014.21 1014.36 1014.55 1014.77 1014.97 1015.16 1015.31 1015.40 1015.44 1015.42
1013.10 1013.27 1013.51 1013.77 1014.03 1014.25 1014.42 1014.53 1014.60 1014.65 1014.70 1014.77 1014.86 1014.95 1015.03 1015.07 1015.06 1014.99 1014.85 1014.69 1014.52 1014.37 1014.26 1014.20 1014.19 1014.21 1014.25 1014.28 1014.31 1014.32 1014.32 1014.33 1014.37 1014.43 1014.53 1014.65 1014.80 1014.96 1015.11 1015.25 1015.36 1015.43 1015.44
1013.28 1013.49 1013.73 1014.00 1014.26 1014.49 1014.68 1014.81 1014.91 1014.99 1015.06 1015.13 1015.20 1015.27 1015.33 1015.35 1015.33 1015.25 1015.12 1014.97 1014.81 1014.67 1014.57 1014.52 1014.51 1014.54 1014.59 1014.64 1014.68 1014.71 1014.72 1014.72 1014.72 1014.73 1014.75 1014.80 1014.87 1014.96 1015.08 1015.21 1015.33 1015.44 1015.50
1013.53 1013.75 1014.00 1014.26 1014.52 1014.76 1014.97 1015.15 1015.29 1015.39 1015.47 1015.54 1015.60 1015.64 1015.66 1015.66 1015.62 1015.54 1015.43 1015.30 1015.17 1015.06 1014.97 1014.93 1014.93 1014.97 1015.02 1015.08 1015.13 1015.17 1015.18 1015.17 1015.13 1015.08 1015.04 1015.01 1015.01 1015.04 1015.11 1015.23 1015.37 1015.51 1015.62
1013.81 1014.03 1014.26 1014.51 1014.77 1015.03 1015.27 1015.49 1015.67 1015.80 1015.90 1015.96 1015.99 1016.00 1015.99 1015.96 1015.91 1015.83 1015.75 1015.65 1015.55 1015.47 1015.41 1015.38 1015.38 1015.41 1015.47 1015.53 1015.60 1015.64 1015.65 1015.63 1015.57 1015.49 1015.40 1015.31 1015.25 1015.23 1015.27 1015.37 1015.52 1015.69 1015.85
1014.07 1014.28 1014.50 1014.73 1015.00 1015.27 1015.55 1015.80 1016.02 1016.19 1016.30 1016.35 1016.36 1016.33 1016.29 1016.23 1016.17 1016.11 1016.05 1015.99 1015.93 1015.87 1015.83 1015.81 1015.81 1015.83 1015.88 1015.94 1016.01 1016.06 1016.09 1016.09 1016.04 1015.95 1015.84 1015.73 1015.63 1015.59 1015.60 1015.69 1015.83 1016.01 1016.19
1014.29 1014.48 1014.68 1014.91 1015.17 1015.46 1015.77 1016.06 1016.32 1016.52 1016.64 1016.69 1016.68 1016.63 1016.55 1016.48 1016.41 1016.36 1016.33 1016.30 1016.27 1016.25 1016.22 1016.20 1016.19 1016.19 1016.23 1016.29 1016.36 1016.43 1016.49 1016.52 1016.51 1016.47 1016.38 1016.27 1016.18 1016.12 1016.11 1016.17 1016.30 1016.47 1016.64
1014.41 1014.61 1014.79 1015.01 1015.28 1015.59 1015.93 1016.25 1016.55 1016.77 1016.91 1016.97 1016.95 1016.87 1016.79 1016.70 1016.64 1016.60 1016.60 1016.61 1016.61 1016.61 1016.59 1016.57 1016.54 1016.53 1016.54 1016.59 1016.66 1016.77 1016.87 1016.96 1017.01 1017.03 1017.00 1016.93 1016.86 1016.81 1016.79 1016.82 1016.91 1017.05 1017.19
1014.45 1014.65 1014.85 1015.07 1015.33 1015.66 1016.02 1016.38 1016.70 1016.96 1017.11 1017.18 1017.16 1017.08 1016.99 1016.91 1016.87 1016.85 1016.88 1016.92 1016.96 1016.98 1016.97 1016.93 1016.89 1016.85 1016.85 1016.88 1016.97 1017.09 1017.25 1017.40 1017.53 1017.63 1017.67 1017.67 1017.63 1017.59 1017.57 1017.57 1017.62 1017.70 1017.80
1014.42 1014.65 1014.85 1015.07 1015.35 1015.67 1016.05 1016.43 1016.78 1017.06 1017.24 1017.32 1017.31 1017.25 1017.17 1017.11 1017.09 1017.11 1017.17 1017.25 1017.32 1017.37 1017.37 1017.33 1017.27 1017.22 1017.19 1017.22 1017.31 1017.46 1017.65 1017.86 1018.07 1018.23 1018.34 1018.40 1018.41 1018.39 1018.37 1018.35 1018.35 1018.38 1018.41
1014.35 1014.61 1014.83 1015.05 1015.32 1015.65 1016.02 1016.41 1016.78 1017.08 1017.28 1017.39 1017.41 1017.37 1017.32 1017.29 1017.29 1017.35 1017.45 1017.57 1017.68 1017.75 1017.77 1017.75 1017.69 1017.63 1017.59 1017.61 1017.71 1017.87 1018.08 1018.33 1018.58 1018.80 1018.97 1019.07 1019.12 1019.13 1019.10 1019.07 1019.04 1019.02 1019.01
1014.27 1014.56 1014.79 1015.00 1015.25 1015.57 1015.93 1016.32 1016.69 1017.01 1017.24 1017.37 1017.42 1017.42 1017.40 1017.40 1017.45 1017.54 1017.69 1017.84 1017.99 1018.10 1018.15 1018.15 1018.11 1018.06 1018.03 1018.05 1018.14 1018.30 1018.52 1018.78 1019.05 1019.29 1019.48 1019.62 1019.70 1019.72 1019.71 1019.68 1019.64 1019.59 1019.55
Thickness
5786 5786 5785 5784 5784 5783 5782 5781 5779 5777 5776 5774 5772 5770 5769 5767 5766 5765 5764 5763 5762 5761 5761 5760 5760 5760 5760 5760 5760 5760 5761 5761 5762 5762 5763 5763 5764 5764 5765 5766 5768 5768 5769
5788 5785 5783 5782 5782 5780 5779 5778 5777 5775 5773 5772 5770 5768 5766 5765 5764 5762 5761 5760 5760 5759 5758 5758 5758 5758 5758 5758 5758 5758 5758 5759 5760 5761 5761 5762 5762 5763 5764 5765 5766 5767 5768
5787 5783 5781 5780 5779 5778 5777 5776 5774 5773 5771 5769 5768 5766 5764 5763 5761 5760 5759 5758 5758 5757 5756 5756 5755 5755 5755 5756 5756 5756 5757 5757 5758 5759 5760 5760 5761 5762 5762 5763 5765 5766 5767
5786 5782 5779 5778 5777 5776 5774 5773 5772 5771 5769 5768 5766 5764 5762 5761 5759 5758 5757 5756 5755 5755 5754 5753 5753 5753 5753 5753 5753 5754 5754 5755 5757 5758 5759 5760 5760 5760 5761 5762 5763 5765 5766
5784 5779 5776 5775 5774 5773 5772 5771 5770 5769 5767 5765 5763 5762 5760 5759 5757 5756 5755 5754 5753 5752 5752 5751 5751 5751 5751 5751 5751 5752 5753 5753 5755 5756 5757 5758 5758 5758 5759 5760 5761 5763 5764
5780 5776 5773 5772 5771 5770 5769 5768 5767 5766 5765 5763 5762 5760 5758 5757 5755 5754 5753 5752 5751 5750 5750 5749 5748 5748 5748 5748 5749 5750 5751 5752 5753 5755 5756 5756 5756 5756 5757 5759 5760 5761 5763
5778 5774 5772 5770 5769 5768 5767 5766 5765 5764 5762 5761 5760 5758 5756 5755 5754 5753 5751 5750 5749 5748 5747 5746 5746 5746 5746 5746 5747 5748 5749 5750 5752 5754 5754 5754 5754 5755 5756 5757 5758 5760 5761
5776 5773 5770 5768 5767 5766 5765 5764 5763 5762 5760 5759 5758 5756 5755 5753 5752 5751 5749 5748 5746 5745 5745 5744 5743 5743 5743 5744 5745 5745 5747 5748 5751 5753 5752 5752 5753 5753 5754 5755 5757 5758 5760
5776 5772 5769 5767 5765 5763 5762 5762 5761 5760 5759 5758 5756 5755 5754 5752 5751 5749 5748 5746 5745 5743 5742 5742 5741 5741 5741 5742 5743 5744 5745 5746 5748 5750 5751 5751 5751 5752 5753 5754 5756 5757 5758
5774 5772 5770 5767 5765 5762 5761 5760 5760 5759 5757 5756 5755 5754 5753 5752 5750 5748 5747 5745 5743 5742 5741 5740 5740 5740 5740 5740 5741 5743 5743 5745 5746 5747 5748 5748 5749 5750 5751 5752 5754 5755 5756
5770 5770 5769 5767 5765 5764 5762 5760 5759 5758 5757 5756 5755 5754 5753 5752 5751 5748 5746 5744 5743 5741 5740 5739 5739 5739 5739 5739 5741 5742 5742 5744 5745 5745 5745 5746 5747 5748 5749 5750 5751 5752 5753
5763 5766 5768 5766 5765 5764 5763 5760 5759 5758 5757 5756 5756 5755 5753 5753 5751 5748 5746 5744 5742 5741 5739 5738 5738 5738 5738 5739 5740 5741 5742 5743 5744 5743 5743 5743 5744 5746 5747 5748 5748 5749 5751
5763 5764 5765 5765 5765 5764 5762 5760 5759 5758 5757 5756 5756 5754 5753 5752 5750 5747 5745 5743 5742 5740 5739 5738 5738 5738 5739 5740 5740 5740 5741 5742 5742 5742 5740 5741 5742 5743 5744 5745 5746 5747 5748
5760 5761 5762 5764 5764 5763 5761 5760 5759 5757 5756 5755 5754 5753 5751 5749 5748 5747 5745 5743 5741 5740 5739 5738 5738 5738 5738 5738 5738 5739 5740 5740 5740 5739 5738 5739 5740 5741 5742 5742 5743 5745 5746
5757 5759 5761 5762 5762 5761 5760 5759 5758 5756 5754 5753 5752 5751 5749 5748 5746 5745 5743 5741 5740 5739 5738 5736 5736 5735 5735 5735 5735 5736 5736 5738 5738 5737 5736 5737 5737 5738 5739 5739 5740 5742 5743
5756 5757 5759 5760 5760 5760 5759 5757 5756 5754 5752 5751 5750 5749 5748 5746 5745 5743 5741 5739 5737 5737 5736 5734 5733 5733 5732 5732 5732 5732 5733 5734 5735 5735 5735 5734 5735 5735 5736 5737 5738 5739 5741
5756 5757 5757 5758 5758 5758 5756 5755 5754 5752 5751 5749 5747 5747 5746 5744 5743 5741 5738 5736 5735 5734 5733 5732 5731 5730 5729 5729 5729 5729 5730 5731 5732 5733 5734 5733 5733 5733 5734 5735 5736 5737 5739
5756 5755 5755 5757 5756 5754 5753 5752 5751 5750 5748 5746 5745 5744 5743 5742 5740 5738 5735 5734 5733 5732 5730 5728 5726 5725 5725 5725 5725 5727 5728 5729 5730 5731 5732 5733 5732 5733 5732 5733 5734 5735 5737
5756 5753 5752 5753 5752 5751 5750 5749 5748 5746 5745 5743 5742 5740 5740 5739 5737 5735 5733 5732 5731 5729 5727 5726 5723 5722 5720 5721 5722 5724 5726 5726 5727 5729 5730 5730 5731 5731 5731 5731 5732 5733 5734
5755 5753 5751 5750 5750 5748 5747 5746 5744 5743 5742 5740 5739 5738 5737 5736 5735 5733 5732 5730 5728 5725 5724 5723 5720 5720 5719 5719 5721 5722 5723 5724 5725 5726 5727 5728 5728 5729 5729 5730 5730 5730 5732
5751 5750 5748 5747 5747 5745 5743 5741 5738 5736 5737 5737 5737 5736 5734 5734 5732 5731 5729 5728 5726 5723 5721 5720 5718 5717 5717 5719 5716 5714 5718 5722 5722 5723 5724 5725 5725 5726 5727 5728 5729 5729 5730
5748 5748 5747 5745 5745 5744 5742 5740 5738 5737 5736 5735 5735 5733 5732 5731 5730 5729 5728 5726 5724 5722 5720 5718 5716 5713 5714 5716 5712 5707 5705 5708 5714 5720 5721 5721 5722 5724 5725 5726 5727 5727 5728
5745 5746 5746 5745 5743 5742 5741 5739 5737 5735 5734 5732 5731 5730 5730 5729 5728 5727 5726 5725 5723 5721 5718 5717 5715 5712 5710 5713 5714 5708 5700 5696 5703 5711 5716 5718 5719 5720 5722 5723 5724 5724 5724
5745 5746 5746 5744 5743 5742 5740 5737 5734 5729 5727 5728 5729 5728 5729 5728 5726 5726 5725 5724 5722 5720 5717 5716 5715 5713 5710 5708 5710 5712 5710 5706 5700 5699 5707 5713 5716 5717 5718 5720 5720 5720 5721
5745 5745 5745 5743 5741 5740 5739 5736 5733 5730 5729 5729 5729 5727 5726 5726 5725 5724 5723 5722 5721 5719 5718 5716 5714 5713 5711 5709 5707 5708 5707 5707 5706 5699 5696 5703 5709 5713 5715 5716 5717 5717 5717
5742 5742 5741 5739 5737 5738 5737 5735 5732 5729 5728 5726 5725 5724 5724 5723 5723 5723 5722 5721 5720 5719 5717 5716 5714 5713 5711 5710 5709 5708 5705 5702 5701 5700 5697 5698 5700 5706 5712 5714 5714 5714 5715